Torna al catalogo

DMSP 5D-2 F13 DEB

AttivoSSO
NORAD 40449·DEBRIS·🇺🇸 United States

Lanciato Mar 24, 1995 da Vandenberg Space Force Base

Loading…

Prossimi Passaggi (prossime 24 ore)

TLE

AggiornatoSource: Space-Track

Epoca: Sep 14, 2026, 07:38 UTC

1 40449U 95015BB  26257.31856706  .00002693  00000-0  98155-3 0  9990
2 40449  98.9210 276.4766 0022146   3.4319 356.7013 14.33844862596362

Traccia DMSP 5D-2 F13 DEB in tempo reale con AllMySat

Download on the App Store